Location: Aurora Center
(43.5271°N, 98.5894°W)
Time: 08:34:37
(UTC-05:00)

BlueWalker 3 - Visible Passes

Search period start: 18 June 2024 00:00
Search period end: 28 June 2024 00:00
Orbit: 480 x 494 km, 53.2° (Epoch: 17 June)

Date Brightness Start Highest point End Pass type
(mag) Time Alt. Az. Time Alt. Az. Time Alt. Az.
18 Jun 4.4 01:09:11 10° WNW 01:12:12 23° NNW 01:15:14 10° NE visible
18 Jun 4.7 02:48:36 10° NW 02:51:21 19° N 02:54:06 10° NE visible
18 Jun 3.3 04:26:41 10° NW 04:30:15 41° NNE 04:33:50 10° E visible
18 Jun 1.9 23:04:09 10° WSW 23:07:53 79° NW 23:11:39 10° NE visible
19 Jun 4.4 00:43:27 10° WNW 00:46:30 23° NNW 00:49:34 10° NE visible
19 Jun 4.8 02:22:55 10° NW 02:25:38 19° N 02:28:22 10° NE visible
19 Jun 3.4 04:01:01 10° NW 04:04:34 39° NNE 04:08:06 10° E visible
19 Jun 1.9 22:38:27 10° SW 22:42:12 84° NW 22:45:58 10° NE visible
20 Jun 4.4 00:17:42 10° WNW 00:20:47 24° NNW 00:23:53 10° NE visible
20 Jun 4.8 01:57:12 10° NW 01:59:55 19° N 02:02:38 10° NE visible
20 Jun 3.4 03:35:21 10° NW 03:38:51 38° NNE 03:42:22 10° E visible
20 Jun 2.3 05:13:32 10° WNW 05:17:01 38° SW 05:20:30 10° SSE visible
20 Jun 1.8 22:12:45 10° SW 22:16:30 90° NW 22:20:16 10° NE visible
20 Jun 4.3 23:51:55 10° WNW 23:55:03 24° NNW 23:58:11 10° NE visible
21 Jun 4.8 01:31:29 10° NW 01:34:11 19° N 01:36:53 10° NE visible
21 Jun 3.5 03:09:39 10° NW 03:13:09 36° NNE 03:16:38 10° E visible
21 Jun 2.2 04:47:48 10° WNW 04:51:20 41° SW 04:54:51 10° SSE visible
21 Jun 4.3 23:26:10 10° WNW 23:29:20 25° NNW 23:32:30 10° NE visible
22 Jun 4.8 01:05:44 10° NW 01:08:26 18° N 01:11:08 10° NE visible
22 Jun 3.5 02:43:57 10° NW 02:47:25 34° NNE 02:50:52 10° E visible
22 Jun 2.1 04:22:05 10° WNW 04:25:38 44° SW 04:29:13 10° SSE visible
22 Jun 4.2 23:00:22 10° WNW 23:03:35 26° NNW 23:06:47 10° NE visible
23 Jun 4.7 00:39:59 10° NW 00:42:41 18° N 00:45:22 10° NE visible
23 Jun 3.6 02:18:15 10° NW 02:21:41 33° NNE 02:25:06 10° E visible
23 Jun 2.0 03:56:20 10° WNW 03:59:56 47° SW 04:03:32 10° SSE visible
23 Jun 4.2 22:34:35 10° W 22:37:49 27° NNW 22:41:04 10° NE visible
24 Jun 4.7 00:14:14 10° NW 00:16:54 18° N 00:19:35 10° NE visible
24 Jun 3.6 01:52:31 10° NW 01:55:56 32° NNE 01:59:19 10° E visible
24 Jun 1.9 03:30:35 10° WNW 03:34:13 51° SW 03:34:41 47° SSW visible
24 Jun 4.1 22:08:47 10° W 22:12:03 28° NNW 22:15:19 10° NE visible
24 Jun 4.7 23:48:27 10° NW 23:51:08 18° N 23:53:48 10° NE visible
25 Jun 3.7 01:26:47 10° NW 01:30:10 30° NNE 01:33:13 12° E visible
25 Jun 2.6 03:04:49 10° WNW 03:07:26 39° W 03:07:26 39° W visible
25 Jun 4.7 23:22:40 10° NW 23:25:20 18° N 23:28:00 10° NE visible
26 Jun 3.7 01:01:03 10° NW 01:04:23 29° NNE 01:06:58 14° ENE visible
26 Jun 3.0 02:39:03 10° WNW 02:41:14 32° WNW 02:41:14 32° WNW visible
26 Jun 4.6 22:56:51 10° NW 22:59:32 18° N 23:02:12 10° NE visible
27 Jun 3.8 00:35:18 10° NW 00:38:36 28° NNE 00:41:08 14° ENE visible
27 Jun 3.1 02:13:17 10° WNW 02:15:25 32° WNW 02:15:25 32° WNW visible
27 Jun 4.6 22:31:02 10° NW 22:33:43 18° N 22:36:24 10° NE visible
